Schneifelwetter: Wetterstation Hallschlag, 537 m . NN
Wetterdaten: Mittwoch, 04.03.2009
Datum Zeit Temp. A. Temp. 2 Feuchte A. Luftdruck Regen Wind Richtung Richtung Sonnenschein Helligkeit T Regen Taupunkt Windchill
04.03.2009 00:10 1,6 C 1,1 C 83 % 1000 hPa 0,0 l/m 21,6 km/h (4 Bft) S22.5 170 0 min 0 lux 0,00 min -1,0 C -8,2 C
04.03.2009 00:25 1,4 C 0,9 C 84 % 1000 hPa 0,0 l/m 22,7 km/h (4 Bft) S22.5 175 0 min 0 lux 0,00 min -1,0 C -9,0 C
04.03.2009 00:40 1,2 C 1,0 C 86 % 1000 hPa 0,0 l/m 23,8 km/h (4 Bft) S22.5 175 0 min 0 lux 0,00 min -0,9 C -9,6 C
04.03.2009 00:55 1,2 C 0,9 C 87 % 1000 hPa 0,0 l/m 20,3 km/h (4 Bft) S45 180 0 min 0 lux 0,00 min -0,7 C -8,2 C
04.03.2009 01:10 1,2 C 1,0 C 88 % 999 hPa 0,0 l/m 25,8 km/h (4 Bft) S22.5 175 0 min 0 lux 0,00 min -0,6 C -10,4 C
04.03.2009 01:25 1,2 C 1,0 C 87 % 999 hPa 0,0 l/m 19,6 km/h (3 Bft) S22.5 170 0 min 0 lux 0,00 min -0,7 C -7,9 C
04.03.2009 01:40 1,2 C 0,7 C 87 % 999 hPa 0,0 l/m 21,6 km/h (4 Bft) S22.5 180 0 min 0 lux 0,00 min -0,7 C -8,8 C
04.03.2009 01:55 1,1 C 0,8 C 88 % 999 hPa 0,0 l/m 25,6 km/h (4 Bft) S22.5 175 0 min 0 lux 0,00 min -0,7 C -10,4 C
04.03.2009 02:10 1,2 C 0,9 C 88 % 998 hPa 0,0 l/m 24,0 km/h (4 Bft) S22.5 175 0 min 0 lux 0,00 min -0,6 C -9,7 C
04.03.2009 02:25 1,1 C 0,6 C 88 % 998 hPa 0,0 l/m 24,0 km/h (4 Bft) S22.5 180 0 min 0 lux 0,00 min -0,7 C -9,9 C
04.03.2009 02:40 0,6 C 0,3 C 88 % 998 hPa 0,0 l/m 25,7 km/h (4 Bft) S22.5 175 0 min 0 lux 0,00 min -1,2 C -11,2 C
04.03.2009 02:55 0,3 C 0,0 C 89 % 997 hPa 0,0 l/m 25,1 km/h (4 Bft) S22.5 170 0 min 0 lux 0,00 min -1,3 C -11,3 C
04.03.2009 03:10 0,1 C -0,3 C 89 % 997 hPa 0,0 l/m 19,5 km/h (3 Bft) S-SO22.5 160 0 min 0 lux 0,00 min -1,5 C -9,3 C
04.03.2009 03:25 0,0 C -0,4 C 90 % 997 hPa 0,0 l/m 22,3 km/h (4 Bft) S22.5 175 0 min 0 lux 0,00 min -1,4 C -10,6 C
04.03.2009 03:40 -0,3 C -0,6 C 90 % 996 hPa 0,0 l/m 20,8 km/h (4 Bft) S22.5 175 0 min 0 lux 0,00 min -1,7 C -10,4 C
04.03.2009 03:55 -0,4 C -0,7 C 90 % 996 hPa 0,0 l/m 18,7 km/h (3 Bft) S45 180 0 min 0 lux 0,00 min -1,8 C -9,5 C
04.03.2009 04:15 -0,3 C -0,4 C 90 % 996 hPa 0,0 l/m 21,9 km/h (4 Bft) S22.5 180 0 min 0 lux 0,00 min -1,7 C -10,9 C
04.03.2009 04:30 0,0 C -0,2 C 90 % 995 hPa 0,0 l/m 20,5 km/h (4 Bft) S22.5 180 0 min 0 lux 0,00 min -1,4 C -9,9 C
04.03.2009 04:45 0,1 C 0,0 C 90 % 995 hPa 0,0 l/m 25,6 km/h (4 Bft) S-SO22.5 165 0 min 0 lux 0,00 min -1,3 C -11,8 C
04.03.2009 05:00 0,3 C 0,1 C 89 % 994 hPa 0,0 l/m 28,6 km/h (4 Bft) S22.5 170 0 min 0 lux 0,00 min -1,3 C -12,5 C
04.03.2009 05:15 0,5 C 0,2 C 89 % 994 hPa 0,0 l/m 33,0 km/h (5 Bft) S22.5 180 0 min 0 lux 0,00 min -1,1 C -13,6 C
04.03.2009 05:30 0,6 C 0,4 C 89 % 994 hPa 0,0 l/m 34,5 km/h (5 Bft) S45 180 0 min 0 lux 0,00 min -1,0 C -13,8 C
04.03.2009 05:45 0,7 C 0,4 C 89 % 994 hPa 0,0 l/m 31,1 km/h (5 Bft) S45 170 0 min 0 lux 0,00 min -0,9 C -12,7 C
04.03.2009 06:01 0,7 C 0,4 C 89 % 994 hPa 0,0 l/m 28,1 km/h (4 Bft) S22.5 180 0 min 0 lux 0,00 min -0,9 C -11,8 C
04.03.2009 06:16 0,6 C 0,3 C 89 % 993 hPa 0,0 l/m 25,1 km/h (4 Bft) S22.5 170 0 min 0 lux 0,00 min -1,0 C -10,9 C
04.03.2009 06:31 0,5 C 0,3 C 90 % 993 hPa 0,0 l/m 23,0 km/h (4 Bft) S22.5 170 0 min 0 lux 0,00 min -0,9 C -10,3 C
04.03.2009 06:46 0,4 C 0,2 C 91 % 993 hPa 0,0 l/m 26,9 km/h (4 Bft) S22.5 175 0 min 0 lux 0,00 min -0,9 C -11,9 C
04.03.2009 07:00 0,3 C 0,1 C 91 % 992 hPa 0,0 l/m 24,4 km/h (4 Bft) S45 170 0 min 76 lux 0,00 min -1,0 C -11,1 C
04.03.2009 07:15 0,3 C 0,0 C 91 % 992 hPa 0,0 l/m 25,0 km/h (4 Bft) S22.5 170 0 min 470 lux 0,00 min -1,0 C -11,3 C
04.03.2009 07:31 0,2 C -0,2 C 91 % 992 hPa 0,0 l/m 26,8 km/h (4 Bft) S22.5 175 0 min 1,73 klux 0,00 min -1,1 C -12,1 C
04.03.2009 07:46 0,1 C -0,2 C 91 % 991 hPa 0,0 l/m 26,5 km/h (4 Bft) S45 180 0 min 2,18 klux 0,00 min -1,2 C -12,1 C
04.03.2009 08:01 0,1 C -0,2 C 91 % 991 hPa 0,0 l/m 24,6 km/h (4 Bft) S45 175 0 min 6,39 klux 0,00 min -1,2 C -11,4 C
04.03.2009 08:15 0,4 C 0,3 C 91 % 991 hPa 0,0 l/m 28,4 km/h (4 Bft) S22.5 180 0 min 14,8 klux 0,00 min -0,9 C -12,3 C
04.03.2009 08:30 1,0 C 0,6 C 90 % 991 hPa 0,0 l/m 31,5 km/h (5 Bft) S-SO22.5 165 0 min 18,5 klux 0,00 min -0,5 C -12,4 C
04.03.2009 08:46 1,6 C 1,0 C 88 % 991 hPa 0,0 l/m 31,0 km/h (5 Bft) S-SO22.5 165 0 min 24,6 klux 0,00 min -0,2 C -11,4 C
04.03.2009 09:01 2,1 C 1,9 C 87 % 991 hPa 0,0 l/m 27,8 km/h (4 Bft) S45 180 15 min 30,2 klux 0,00 min 0,2 C -9,8 C
04.03.2009 09:16 2,6 C 3,0 C 83 % 991 hPa 0,0 l/m 32,2 km/h (5 Bft) S45 175 15 min 34,3 klux 0,00 min 0,0 C -10,3 C
04.03.2009 09:31 3,0 C 4,2 C 81 % 991 hPa 0,0 l/m 32,1 km/h (5 Bft) S22.5 180 15 min 36,9 klux 0,00 min 0,1 C -9,7 C
04.03.2009 09:46 3,6 C 5,1 C 79 % 990 hPa 0,0 l/m 30,8 km/h (5 Bft) S45 170 15 min 39,3 klux 0,00 min 0,3 C -8,6 C
04.03.2009 10:01 3,7 C 5,9 C 79 % 990 hPa 0,0 l/m 36,3 km/h (5 Bft) S-SO45 165 15 min 43,9 klux 0,00 min 0,4 C -9,7 C
04.03.2009 10:15 4,3 C 6,9 C 75 % 990 hPa 0,0 l/m 33,7 km/h (5 Bft) S-SO22.5 160 14 min 47,2 klux 0,00 min 0,3 C -8,3 C
04.03.2009 10:31 4,7 C 7,7 C 73 % 989 hPa 0,0 l/m 45,9 km/h (6 Bft) S-SO22.5 160 16 min 51,0 klux 0,00 min 0,3 C -9,9 C
04.03.2009 10:46 5,2 C 8,7 C 72 % 989 hPa 0,0 l/m 34,6 km/h (5 Bft) S22.5 180 15 min 54,0 klux 0,00 min 0,6 C -7,2 C
04.03.2009 11:01 5,9 C 9,7 C 68 % 989 hPa 0,0 l/m 36,5 km/h (5 Bft) S-SO45 165 15 min 63,6 klux 0,00 min 0,5 C -6,5 C
04.03.2009 11:16 6,0 C 9,5 C 68 % 989 hPa 0,0 l/m 44,0 km/h (6 Bft) S-SO22.5 165 15 min 58,5 klux 0,00 min 0,6 C -7,7 C
04.03.2009 11:31 6,2 C 9,4 C 68 % 989 hPa 0,0 l/m 30,7 km/h (5 Bft) S45 170 15 min 54,0 klux 0,00 min 0,7 C -4,9 C
04.03.2009 11:46 6,0 C 8,1 C 67 % 989 hPa 0,0 l/m 47,0 km/h (6 Bft) S45 180 15 min 35,8 klux 0,00 min 0,3 C -8,1 C
04.03.2009 12:00 5,4 C 6,1 C 74 % 989 hPa 0,0 l/m 47,7 km/h (6 Bft) S22.5 180 0 min 25,3 klux 0,00 min 1,1 C -9,1 C
04.03.2009 12:15 4,7 C 5,5 C 80 % 989 hPa 0,0 l/m 36,8 km/h (5 Bft) S-SO22.5 160 15 min 31,8 klux 0,00 min 1,6 C -8,4 C
04.03.2009 12:31 4,4 C 5,0 C 83 % 988 hPa 0,0 l/m 43,4 km/h (6 Bft) S22.5 170 16 min 32,9 klux 0,00 min 1,8 C -10,0 C
04.03.2009 12:46 3,9 C 4,3 C 85 % 988 hPa 0,0 l/m 31,3 km/h (5 Bft) S45 190 0 min 19,2 klux 0,00 min 1,6 C -8,3 C
04.03.2009 13:01 3,5 C 3,9 C 87 % 988 hPa 0,0 l/m 32,4 km/h (5 Bft) S22.5 180 0 min 23,5 klux 0,00 min 1,5 C -9,1 C
04.03.2009 13:16 3,1 C 3,3 C 89 % 988 hPa 0,0 l/m 28,3 km/h (4 Bft) S-SO45 165 0 min 16,1 klux 0,00 min 1,5 C -8,6 C
04.03.2009 13:31 3,1 C 3,2 C 91 % 988 hPa 0,0 l/m 32,0 km/h (5 Bft) S22.5 180 0 min 21,2 klux 0,00 min 1,8 C -9,6 C
04.03.2009 13:46 3,0 C 3,1 C 92 % 987 hPa 0,0 l/m 29,6 km/h (5 Bft) S-SO45 160 0 min 21,8 klux 0,00 min 1,8 C -9,1 C
04.03.2009 14:00 3,1 C 3,1 C 92 % 987 hPa 0,0 l/m 27,7 km/h (4 Bft) S22.5 170 0 min 16,0 klux 0,00 min 1,9 C -8,4 C
04.03.2009 14:16 3,3 C 3,3 C 93 % 987 hPa 0,0 l/m 35,8 km/h (5 Bft) S-SO22.5 165 0 min 24,6 klux 0,00 min 2,3 C -10,2 C
04.03.2009 14:31 3,1 C 3,1 C 93 % 987 hPa 0,0 l/m 27,1 km/h (4 Bft) S22.5 180 0 min 10,4 klux 0,00 min 2,1 C -8,2 C
04.03.2009 14:46 3,0 C 3,0 C 93 % 987 hPa 0,0 l/m 30,8 km/h (5 Bft) S22.5 175 0 min 12,3 klux 0,00 min 2,0 C -9,4 C
04.03.2009 15:01 3,0 C 2,9 C 94 % 987 hPa 0,0 l/m 28,5 km/h (4 Bft) S45 175 0 min 9,6 klux 0,00 min 2,1 C -8,8 C
04.03.2009 15:16 2,9 C 2,9 C 95 % 986 hPa 0,0 l/m 35,2 km/h (5 Bft) S-SO22.5 160 0 min 10,2 klux 0,00 min 2,2 C -10,6 C
04.03.2009 15:31 2,9 C 3,0 C 95 % 986 hPa 0,0 l/m 22,3 km/h (4 Bft) S-SO22.5 150 0 min 13,8 klux 0,00 min 2,2 C -6,8 C
04.03.2009 15:45 2,9 C 2,9 C 95 % 986 hPa 0,0 l/m 30,8 km/h (5 Bft) S22.5 170 0 min 9,6 klux 0,00 min 2,2 C -9,5 C
04.03.2009 16:00 2,9 C 2,9 C 95 % 986 hPa 0,0 l/m 29,1 km/h (5 Bft) S22.5 170 0 min 6,33 klux 0,00 min 2,2 C -9,1 C
04.03.2009 16:16 3,0 C 2,9 C 95 % 986 hPa 0,0 l/m 31,7 km/h (5 Bft) S22.5 180 0 min 8,08 klux 0,00 min 2,3 C -9,6 C
04.03.2009 16:31 3,1 C 3,1 C 95 % 986 hPa 4,5 l/m 24,5 km/h (4 Bft) S45 175 0 min 12,4 klux 15,00 min 2,4 C -7,3 C
04.03.2009 16:46 3,4 C 3,2 C 95 % 986 hPa 0,3 l/m 25,3 km/h (4 Bft) S45 170 0 min 12,5 klux 15,00 min 2,7 C -7,2 C
04.03.2009 17:01 3,5 C 3,2 C 95 % 985 hPa 0,0 l/m 23,6 km/h (4 Bft) S45 170 0 min 6,50 klux 0,00 min 2,8 C -6,5 C
04.03.2009 17:16 3,4 C 3,2 C 95 % 985 hPa 0,0 l/m 27,3 km/h (4 Bft) S22.5 170 0 min 1,78 klux 0,00 min 2,7 C -7,8 C
04.03.2009 17:31 3,2 C 3,1 C 95 % 986 hPa 0,0 l/m 29,4 km/h (5 Bft) S22.5 170 0 min 810 lux 0,00 min 2,5 C -8,7 C
04.03.2009 17:45 3,2 C 3,0 C 95 % 986 hPa 0,0 l/m 24,6 km/h (4 Bft) S22.5 170 0 min 405 lux 0,00 min 2,5 C -7,2 C
04.03.2009 18:01 3,1 C 3,0 C 95 % 986 hPa 0,3 l/m 35,9 km/h (5 Bft) S-SO22.5 165 0 min 318 lux 16,00 min 2,4 C -10,5 C
04.03.2009 18:16 3,1 C 2,9 C 96 % 986 hPa 0,0 l/m 32,5 km/h (5 Bft) S45 180 0 min 486 lux 0,00 min 2,5 C -9,7 C
04.03.2009 18:31 3,1 C 2,8 C 96 % 986 hPa 0,0 l/m 27,3 km/h (4 Bft) S22.5 170 0 min 143 lux 0,00 min 2,5 C -8,3 C
04.03.2009 18:46 3,1 C 2,8 C 96 % 985 hPa 0,0 l/m 22,5 km/h (4 Bft) SO67.5 140 0 min 45 lux 0,00 min 2,5 C -6,6 C
04.03.2009 19:01 3,1 C 2,9 C 97 % 986 hPa 0,0 l/m 29,5 km/h (5 Bft) S-SO45 165 0 min 10 lux 0,00 min 2,7 C -8,9 C
04.03.2009 19:16 3,1 C 2,9 C 96 % 986 hPa 0,0 l/m 25,8 km/h (4 Bft) S-SO22.5 165 0 min 3 lux 0,00 min 2,5 C -7,8 C
04.03.2009 19:30 3,2 C 3,0 C 97 % 986 hPa 0,0 l/m 28,2 km/h (4 Bft) S-SO45 150 0 min 0 lux 0,00 min 2,8 C -8,4 C
04.03.2009 19:45 3,3 C 3,1 C 97 % 986 hPa 0,0 l/m 26,0 km/h (4 Bft) S-SO45 165 0 min 0 lux 0,00 min 2,9 C -7,6 C
04.03.2009 20:01 3,2 C 3,1 C 97 % 986 hPa 0,0 l/m 29,3 km/h (5 Bft) S-SO22.5 165 0 min 0 lux 0,00 min 2,8 C -8,7 C
04.03.2009 20:16 3,2 C 3,1 C 97 % 986 hPa 0,3 l/m 27,5 km/h (4 Bft) S45 170 0 min 0 lux 15,00 min 2,8 C -8,2 C
04.03.2009 20:31 3,2 C 3,1 C 97 % 986 hPa 0,0 l/m 26,3 km/h (4 Bft) S-SO22.5 165 0 min 0 lux 0,00 min 2,8 C -7,8 C
04.03.2009 20:46 3,1 C 3,0 C 97 % 986 hPa 0,0 l/m 26,6 km/h (4 Bft) S-SO22.5 165 0 min 0 lux 0,00 min 2,7 C -8,0 C
04.03.2009 21:01 3,1 C 2,9 C 97 % 986 hPa 0,3 l/m 23,4 km/h (4 Bft) S22.5 175 0 min 0 lux 15,00 min 2,7 C -7,0 C
04.03.2009 21:15 2,9 C 2,8 C 97 % 986 hPa 0,3 l/m 27,3 km/h (4 Bft) S22.5 180 0 min 0 lux 14,00 min 2,5 C -8,5 C
04.03.2009 21:30 2,8 C 2,7 C 97 % 986 hPa 0,3 l/m 16,5 km/h (3 Bft) S22.5 175 0 min 0 lux 15,00 min 2,4 C -4,4 C
04.03.2009 21:46 2,7 C 2,6 C 97 % 986 hPa 0,0 l/m 16,3 km/h (3 Bft) S22.5 180 0 min 0 lux 0,00 min 2,3 C -4,4 C
04.03.2009 22:01 2,7 C 2,5 C 97 % 986 hPa 0,3 l/m 15,6 km/h (3 Bft) SW22.5 230 0 min 0 lux 15,00 min 2,3 C -4,0 C
04.03.2009 22:16 2,6 C 2,4 C 97 % 986 hPa 0,0 l/m 13,1 km/h (3 Bft) SW22.5 235 0 min 0 lux 0,00 min 2,2 C -2,7 C
04.03.2009 22:31 2,5 C 2,4 C 97 % 985 hPa 0,3 l/m 11,8 km/h (2 Bft) S-SW45 200 0 min 0 lux 15,00 min 2,1 C -2,0 C
04.03.2009 22:46 2,5 C 2,4 C 97 % 985 hPa 0,0 l/m 11,8 km/h (2 Bft) S-SW45 195 0 min 0 lux 0,00 min 2,1 C -2,0 C
04.03.2009 23:01 2,5 C 2,3 C 97 % 985 hPa 0,0 l/m 12,3 km/h (3 Bft) W-SW 245 0 min 0 lux 0,00 min 2,1 C -2,3 C
04.03.2009 23:15 2,3 C 2,1 C 97 % 985 hPa 0,3 l/m 11,1 km/h (2 Bft) W-SW 245 0 min 0 lux 14,00 min 1,9 C -1,7 C
04.03.2009 23:31 2,2 C 1,9 C 97 % 985 hPa 0,0 l/m 6,5 km/h (2 Bft) SW 235 0 min 0 lux 0,00 min 1,8 C 2,1 C
04.03.2009 23:46 2,0 C 1,8 C 97 % 985 hPa 0,3 l/m 13,3 km/h (3 Bft) SW22.5 235 0 min 0 lux 15,00 min 1,6 C -3,5 C
_ Min-Zeit 03:55 03:55 11:46 17:01 - 23:31 - - - - - 03:55 05:30
Minimum _ -0,4 C -0,7 C 67 % 985 hPa - 6,5 km/h (2 Bft) - - - - - -1,8 C -13,8 C
_ Max-Zeit 11:31 11:01 19:01 00:10 16:31 12:00 - - 10:31 11:01 18:01 19:45 23:31
Maximum _ 6,2 C 9,7 C 97 % 1000 hPa 4,5 l/m 47,7 km/h
S (6 Bft)
- - 16 min 63,6 klux 16,00 min 2,9 C 2,1 C
Durchschnitt _ 2,4 C 2,5 C 90 % 990 hPa #7,5 l/m 27,0 km/h (4 Bft) S - #3:31 h 10,2 klux #2:44 h 0,8 C -8,7 C